Starlink 4067

operational
NORAD ID: 52668 Int'l Des: 2022-053 Owner: SPXS Country: US Constellation: starlink
LEOCIRCULAR

关于 Starlink 4067

正在加载描述...

实时位置

正在加载3D地球...

即将过境

高度历史

Altitude vs Time

uPlot chart will show altitude changes over time

两行轨道根数

1 52668U 22053N 25257.33439449 -.00000127 00000-0 10115-4 0 9992
2 52668 53.2157 225.8097 0001237 82.6276 277.4857 15.08837833184424
Epoch: Sep 14, 2025 • Age: 25 hours

当前状态

高度 556.4 km
速度 7.58 km/s
星下点 -46.61°S, 35.85°W
发射日期 May 18, 2022
运行时间 3.3 years
类型 internet

技术详情

分类 Payload
质量 297.00 kg
干质量 275.00 kg
总质量 297.00 kg
长度 0.20 m
直径 2.80 m
跨度 9.00 m
形状 Box + pan
制造商 SPXS
平台类型 Starlink
阶段状态 In Orbit
所有者/国家 SPXS/US

大型星座

Loading constellations...